STARLINK-4720, 53800

Orbit data source: Space-Track

STARLINK-4720, 53800 is a payload satellite owned by SpaceX/Seattle (US) in LEO that was launched on Sun, 11 Sep 2022 UTC via an FALCON 9 launch vehicle from the Air Force Eastern Test Range (AFETR). Payload-class satellites include a variety of spacecraft equipped with specific instruments for various scientific and technological missions. These include communications satellites like Starlink; space stations such as the ISS; scientific satellites like the Hubble; Earth observation satellites from companies like Planet Labs, Umbra, and HawkEye 360; GPS; miniature CubeSats for education and research; and military/defense satellites.

Loading next visibility...
Identifier
53800, 2022-111AD
Orbit
LEO
Last TLE update
7 hours ago
Origin
Manufacturer
SpaceX/Seattle
Mission
Operational Commercial Communications
Bus & Motor
STARLINK, Unknown motor
Mass
305 kg wet, ~290 kg dry
Launch date (UTC)
2022-09-11 (3 years ago)
Launch vehicle
FALCON 9
Launch site
Air Force Eastern Test Range (AFETR)
Object type
Payload
Rocket body
Debris
Shape & HBR
Box + 1 Pan, 8.86 m
Radar Cross Section
13.562 m², Large (>1 m²)

Expand to show TLE details & history

TLE from 7 hours ago
0 STARLINK-4720
1 53800U 22111AD  25182.08658762  .00000638  00000-0  58137-4 0  9998
2 53800  53.2182 313.5563 0001197  87.8462 272.2667 15.08840809155026
Epoch: 2025-07-01T02:04Z
TLE epoch observation values (Epoch: 2025-07-01T02:04:41.17Z)
Latitude
-0.00003°
Longitude
2.99765°
Altitude
540.606 km
Speed
7.593 km/s
True Right ascension
20h 54m 13s
True Declination
0° 00' 00"
Sunlit
Object was in full shadow at epoch
Visualization orbit readout
Latitude
-26.85167°
Longitude
-156.25714°
Altitude
548.171 km
Speed
7.588 km/s
Apparent Right ascension
09h 43m 38s
Apparent Declination
-33° 18' 13"
Sunlit
Object is in daylight
Visualization observer readout
Local Sidereal Time
21:01:11
Azimuth
304.545° NW
Elevation
-79.228°
Doppler factor
1
Orbital elements
Apogee altitude
540.814 km
Perigee altitude
539.158 km
Semi-major axis
6,918.123 km
Eccentricity
0.00012
Inclination
53.2182°
RAAN
313.5563°
Arg. of periapsis
87.8462°
True anomaly
Unknown
Mean anomaly
272.2667°
Eccentric anomaly
Unknown
Mean motion
3.77191 °/min
Orbital period
95.44 mins
BSTAR
0.000058137
Loading maneuver chart data...
Loading SW <> Apogee altitude chart data...
Loading historical data...
Loading historical data...
Loading historical data...
Loading historical data...
Loading historical data...
Loading historical data...
Loading historical data...

STARLINK-4720 Visibility forecast

Observer location: undefined°, undefined°

Span
Click to sort rows by Start time (UTC) header in descending order
Start Az.
Max El. time (UTC)
Max El. Az.
Max El.
End time (UTC)
End Az.
6 mins2025-07-01 11:48:54.751Z236.907° WSW2025-07-01 11:50:54.751Z261.009° W42.208°2025-07-01 11:54:54.751Z46.851° ENE
4 mins2025-07-01 13:29:54.751Z313.712° NW2025-07-01 13:30:54.751Z332.234° NNW17.91°2025-07-01 13:33:54.751Z23.21° NE
4 mins2025-07-01 16:50:54.751Z350.515° N2025-07-01 16:52:54.751Z31.216° NE19.961°2025-07-01 16:54:54.751Z66.038° ENE
6 mins2025-07-01 18:29:54.751Z307.367° NW2025-07-01 18:31:54.751Z289.169° WNW43.516°2025-07-01 18:35:54.751Z134.344° SE
|